KINEIS-2C

Last updated on Thu Sep 24 2026 00:03:12 GMT+0000 (Coordinated Universal Time)

1 62929U 25028B 26266.10769442 .00000809 00000+0 13213-3 0 9999 2 62929 98.1148 320.5740 0002804 334.7006 25.4064 14.73579220 87038
UTC large
Height (km)
Speed (km/s)
/
Latitude / Longitude
Inclination (degrees)
Orbital Period (minutes)
Azimuth
Elevation
Range (km)
Doppler Factor

Next 0 passes for location: London (51.5072 / 0.1276)

No passes found over London.
KINEIS-2C